[[{"header":{"parameterUnit":"m.s-1","parameterCategory":1,"la1":30.2992,"la2":30.254,"lo1":-89.0895,"lo2":-89.0443,"dy":0.0025,"dx":0.0025,"nx":19,"ny":19,"refTime":"2026-05-01T03:00:00:Z","depth":0,"parameterNumber":2,"parameterNumberName":"U-component_of_WINDS"},"data":[0,0,0,-2.6468,-2.6468,-2.6405,-2.6404,-2.6366,-2.6366,0,0,0,0,0,0,0,0,0,0,0,-2.6512,-2.6513,-2.6468,-2.6468,-2.6405,-2.6404,-2.6366,-2.6366,0,0,0,0,0,0,0,0,0,0,0,-2.6512,-2.6512,-2.6513,-2.6468,-2.6405,-2.6404,-2.6366,-2.6398,0,0,0,0,0,0,0,0,0,0,-2.6452,-2.6517,-2.6512,-2.6513,-2.6467,-2.6405,-2.6404,-2.6399,-2.6396,-2.6412,0,-2.6433,0,-2.6399,-2.6366,-2.6366,0,0,0,-2.6449,-2.6519,-2.648,-2.6513,-2.6467,-2.6405,-2.6428,-2.6397,-2.6394,-2.6409,-2.6432,-2.6429,-2.6399,-2.6366,-2.6366,-2.6522,-2.6524,0,0,-2.6452,-2.6514,-2.6483,-2.6479,-2.6491,-2.643,-2.6426,-2.6395,-2.6424,-2.6432,-2.6428,-2.6398,-2.6366,-2.6366,-2.652,-2.6522,0,0,0,-2.6475,-2.6518,-2.6478,-2.6482,-2.6468,-2.6429,-2.6424,-2.6425,-2.6407,-2.6427,-2.6397,-2.6366,-2.6366,-2.6519,-2.6521,-2.6663,0,0,0,-2.6476,-2.653,-2.648,-2.6517,-2.6469,-2.6446,-2.6457,-2.6409,-2.6404,-2.6398,-2.6366,-2.6366,-2.6517,-2.652,-2.6655,-2.672,0,0,0,-2.6508,-2.6534,-2.6533,-2.6521,-2.6496,-2.6444,-2.6424,-2.6407,-2.6387,-2.6366,-2.6366,-2.6515,-2.6519,-2.6648,-2.6708,-2.6781,0,0,0,-2.6559,-2.6658,-2.6537,-2.6636,-2.6497,-2.6532,-2.6423,-2.6446,-2.6445,-2.6366,-2.6517,-2.6521,-2.6646,-2.6701,-2.6774,-2.6856,-2.6895,0,0,-2.6719,-2.668,-2.6733,-2.6623,-2.6696,-2.6537,-2.663,-2.657,-2.651,-2.6522,-2.6525,-2.6658,-2.6707,-2.678,-2.7089,-2.7121,0,0,0,-2.6805,-2.6845,-2.685,-2.6853,-2.681,-2.678,-2.6699,-2.6677,-2.6684,-2.6529,-2.67,-2.6728,-2.6768,-2.6805,-2.6831,-2.6863,-2.654,-2.6539,-2.6539,-2.7121,-2.7041,-2.7125,-2.7039,-2.7043,-2.696,-2.6956,-2.6913,-2.6829,-2.6871,-2.6875,-2.7072,-2.7117,-2.7137,-2.7171,-2.6909,-2.691,-2.691,-2.6911,-2.7349,-2.7395,-2.7284,-2.7326,-2.7242,-2.7277,-2.7201,-2.7142,-2.7163,-2.7062,-2.7093,-2.6993,-2.7174,-2.72,-2.692,-2.6919,-2.6917,-2.6916,-2.6916,-2.7549,-2.7557,-2.7529,-2.7527,-2.7534,-2.7442,-2.7469,-2.739,-2.7315,-2.7346,-2.7344,-2.7341,-2.7331,-2.735,-2.7351,-2.7352,-2.7352,-2.7353,-2.7353,-2.7769,-2.7733,-2.7765,-2.773,-2.7723,-2.7703,-2.7622,-2.7613,-2.7583,-2.7523,-2.7523,-2.7439,-2.7205,-2.715,-2.7363,-2.7362,-2.736,-2.7359,-2.7359,-2.8035,-2.7963,-2.8013,-2.8006,-2.796,-2.7974,-2.7873,-2.7862,-2.7842,-2.7859,-2.7767,-2.7607,-2.7561,-2.7539,-2.7493,-2.7782,-2.7782,-2.7782,-2.7782,-2.8206,-2.8175,-2.821,-2.8205,-2.819,-2.8105,-2.8167,-2.8106,-2.8031,-2.8015,-2.7961,-2.7892,-2.7873,-2.7839,-2.781,-2.7767,-2.8118,-2.8119,-2.8119,-2.8367,-2.8331,-2.8399,-2.8325,-2.8283,-2.8251,-2.8307,-2.8307,-2.8206,-2.8131,-2.8001,-2.7987,-2.7875,-2.7842,-2.7767,-2.7724,-2.7642,0,0]},{"header":{"parameterUnit":"m.s-1","parameterCategory":1,"la1":30.2992,"la2":30.254,"lo1":-89.0895,"lo2":-89.0443,"dy":0.0025,"dx":0.0025,"nx":19,"ny":19,"refTime":"2026-05-01T03:00:00:Z","depth":0,"parameterNumber":3,"parameterNumberName":"V-component_of_WINDS"},"data":[0,0,0,2.9568,2.957,2.9655,2.9655,2.9749,2.975,0,0,0,0,0,0,0,0,0,0,0,2.9536,2.9536,2.9568,2.957,2.9654,2.9655,2.9749,2.975,0,0,0,0,0,0,0,0,0,0,0,2.9536,2.9536,2.9537,2.957,2.9654,2.9655,2.9749,2.9689,0,0,0,0,0,0,0,0,0,0,2.961,2.9573,2.9536,2.9537,2.9571,2.9654,2.9655,2.9687,2.9693,2.9705,0,2.9715,0,2.9734,2.9755,2.9755,0,0,0,2.9575,2.9568,2.9597,2.9537,2.9572,2.9654,2.9618,2.9691,2.9698,2.9713,2.9716,2.972,2.9735,2.9756,2.9756,2.9812,2.9812,0,0,2.957,2.9547,2.9592,2.9602,2.9589,2.9615,2.962,2.9695,2.9696,2.9717,2.9722,2.9737,2.9756,2.9757,2.9812,2.9812,0,0,0,2.9554,2.9543,2.9571,2.9597,2.9614,2.9617,2.9624,2.9693,2.9704,2.9724,2.9738,2.9757,2.9758,2.9812,2.9812,2.9791,0,0,0,2.9551,2.9533,2.9569,2.9555,2.9612,2.9655,2.9619,2.9699,2.9708,2.9738,2.9757,2.9759,2.9812,2.9812,2.9792,2.9785,0,0,0,2.9533,2.9531,2.9541,2.9554,2.959,2.9654,2.967,2.9701,2.9717,2.9756,2.9759,2.9812,2.9812,2.9792,2.9786,2.9793,0,0,0,2.9506,2.952,2.9541,2.9562,2.9589,2.9641,2.9669,2.9709,2.974,2.9757,2.9812,2.9812,2.9792,2.9786,2.9793,2.9795,2.9793,0,0,2.951,2.952,2.9534,2.9555,2.9598,2.963,2.967,2.9719,2.9743,2.9787,2.9789,2.9792,2.9786,2.9793,2.9794,2.9793,0,0,0,2.9527,2.9537,2.9554,2.9584,2.9624,2.9657,2.9704,2.9723,2.9762,2.9762,2.9797,2.9794,2.98,2.9801,2.98,2.9806,2.9812,2.9812,2.9812,2.9498,2.9531,2.9557,2.9601,2.9629,2.9678,2.9704,2.9738,2.976,2.9769,2.9781,2.9778,2.9779,2.9779,2.9785,2.9785,2.9785,2.9785,2.9785,2.9507,2.9527,2.956,2.9597,2.9632,2.9663,2.9712,2.9727,2.9761,2.9771,2.9777,2.9784,2.9776,2.9783,2.9784,2.9784,2.9784,2.9784,2.9784,2.9491,2.9506,2.9531,2.9578,2.9611,2.9654,2.9686,2.9716,2.9744,2.975,2.9767,2.9768,2.9772,2.9757,2.9757,2.9757,2.9757,2.9757,2.9757,2.9465,2.9493,2.9517,2.9562,2.9586,2.9621,2.9673,2.9696,2.973,2.9749,2.975,2.9772,2.977,2.9769,2.9757,2.9757,2.9757,2.9757,2.9757,2.9461,2.9467,2.9504,2.9528,2.9585,2.9615,2.9654,2.9701,2.9725,2.974,2.9762,2.9756,2.9766,2.9767,2.9767,2.9755,2.9755,2.9755,2.9755,2.9447,2.9457,2.9502,2.9539,2.9578,2.9618,2.9658,2.9698,2.9741,2.9758,2.9764,2.9766,2.9766,2.9777,2.9778,2.9777,2.9768,2.9768,2.9768,2.9447,2.9462,2.949,2.9534,2.9581,2.962,2.9659,2.97,2.9749,2.9769,2.9772,2.9771,2.9774,2.9773,2.9792,2.9793,2.9792,0,0]}]]